Raleigh-Durham Airport, NC

1:10 AM EDT on April 27, 2018 (GMT -0400)
Raleigh-Durham International

Weather History for KRDU - October, 2011

Change the Weather History Date:

Wednesday, October 19, 2011

  Actual Average Record
Temperature  
Mean Temperature 61 °F 60 °F  
Max Temperature 68 °F 72 °F 88 °F (2016)
Min Temperature 54 °F 49 °F 32 °F (1948)
Degree Days  
Heating Degree Days 4 6  
Month to date heating degree days 64 77  
Since 1 July heating degree days 79 98  
Cooling Degree Days 0 1  
Month to date cooling degree days 26 41  
Year to date cooling degree days 2110 1709  
Growing Degree Days 12 (Base 50)    
Moisture  
Dew Point 61 °F    
Average Humidity 86    
Maximum Humidity 100    
Minimum Humidity 72    
Precipitation  
Precipitation 0.84 in 0.10 in 1.84 in (1968)
Month to date precipitation 2.29 2.04  
Year to date precipitation 37.11 35.94  
Sea Level Pressure  
Sea Level Pressure 29.43 in    
Wind  
Wind Speed 11 mph (East)    
Max Wind Speed 26 mph    
Max Gust Speed 35 mph    
Visibility 6 miles    
Events Rain    
T = Trace of Precipitation, MM = Missing Value Source: NWS Daily Summary

Daily Weather History Graph

Daily Weather History Graph

Search for Another Location

Airport or City:

Astronomy

Oct. 19, 2011 Rise Set
Actual Time 7:25 AM EDT 6:34 PM EDT
Civil Twilight 6:59 AM EDT 7:00 PM EDT
Nautical Twilight 6:29 AM EDT 7:30 PM EDT
Astronomical Twilight 5:59 AM EDT 7:59 PM EDT
Moon No Moon Rise 1:49 PM EDT (10/19)
Length of Visible Light 12h 01m
Length of Day
11h 09m
Waning Gibbous, 55% of the Moon is Illuminated
Oct 19
Waning Gibbous
Oct 19
Last Quarter
Oct 26
New
Nov 2
First Quarter
Nov 10
Full

Hourly Weather History & Observations

Time (EDT) Temp. Dew Point Humidity Pressure Visibility Wind Dir Wind Speed Gust Speed Precip Events Conditions
12:51 AM 63.0 °F 62.1 °F 97% 29.64 in 2.0 mi Variable 5.8 mph - 0.30 in Rain Rain
1:51 AM 63.0 °F 61.0 °F 93% 29.60 in 2.0 mi NE 9.2 mph - 0.52 in Rain Rain
2:51 AM 62.1 °F 60.1 °F 93% 29.57 in 2.0 mi NE 9.2 mph - 0.11 in Rain Rain
3:00 AM 62.6 °F 60.8 °F 94% 29.58 in 5.0 mi NE 6.9 mph - 0.01 in Rain Light Rain
3:51 AM 62.1 °F 60.1 °F 93% 29.55 in 10.0 mi NE 12.7 mph 18.4 mph 0.01 in   Overcast
4:15 AM 60.8 °F 59.0 °F 94% 29.56 in 7.0 mi ENE 8.1 mph 19.6 mph N/A   Overcast
4:51 AM 61.0 °F 59.0 °F 93% 29.55 in 10.0 mi NE 9.2 mph - N/A   Overcast
5:51 AM 61.0 °F 57.9 °F 90% 29.53 in 10.0 mi NE 12.7 mph 20.7 mph N/A   Mostly Cloudy
6:51 AM 61.0 °F 57.0 °F 87% 29.51 in 10.0 mi NE 10.4 mph - N/A   Mostly Cloudy
7:51 AM 61.0 °F 57.0 °F 87% 29.50 in 10.0 mi NE 10.4 mph - N/A   Mostly Cloudy
8:51 AM 62.1 °F 57.9 °F 86% 29.49 in 10.0 mi ENE 9.2 mph 17.3 mph N/A   Overcast
9:51 AM 62.1 °F 59.0 °F 90% 29.47 in 6.0 mi East 9.2 mph 17.3 mph 0.02 in Rain Light Rain
10:51 AM 63.0 °F 61.0 °F 93% 29.44 in 1.5 mi NE 8.1 mph - 0.05 in Rain Light Rain
11:03 AM 62.6 °F 60.8 °F 94% 29.44 in 3.0 mi ENE 9.2 mph - 0.00 in Rain Light Rain
11:51 AM 63.0 °F 62.1 °F 97% 29.41 in 3.0 mi ENE 8.1 mph - 0.00 in   Light Drizzle
12:12 PM 62.6 °F 62.6 °F 100% 29.42 in 2.0 mi East 5.8 mph - 0.01 in Rain Rain
12:18 PM 62.6 °F 62.6 °F 100% 29.41 in 0.8 mi ENE 6.9 mph - 0.03 in Rain Rain
12:51 PM 64.0 °F 63.0 °F 96% 29.39 in 3.0 mi NE 4.6 mph - 0.10 in Rain Light Rain
1:24 PM 64.4 °F 62.6 °F 94% 29.38 in 2.0 mi East 6.9 mph - 0.03 in Rain Rain
2:01 PM 64.4 °F 62.6 °F 94% 29.37 in 5.0 mi East 4.6 mph - N/A   Light Drizzle
2:31 PM 64.4 °F 64.4 °F 100% 29.35 in 2.0 mi East 3.5 mph - 0.01 in   Light Drizzle
2:51 PM 64.9 °F 64.0 °F 97% 29.34 in 2.0 mi East 3.5 mph - 0.01 in   Light Drizzle
3:51 PM 66.0 °F 64.9 °F 96% 29.33 in 2.0 mi SSE 3.5 mph - 0.00 in   Light Drizzle
4:51 PM 66.9 °F 66.0 °F 97% 29.33 in 2.0 mi SSW 5.8 mph - 0.00 in   Light Drizzle
5:25 PM 68.0 °F 64.4 °F 88% 29.32 in 2.0 mi South 8.1 mph - 0.00 in   Overcast
5:34 PM 68.0 °F 64.4 °F 88% 29.32 in 4.0 mi South 6.9 mph - 0.00 in   Overcast
5:51 PM 68.0 °F 64.9 °F 90% 29.31 in 8.0 mi South 6.9 mph - 0.00 in   Overcast
6:51 PM 68.0 °F 64.9 °F 90% 29.34 in 6.0 mi WSW 12.7 mph - 0.01 in Rain Light Rain
7:07 PM 68.0 °F 64.4 °F 88% 29.34 in 4.0 mi South 6.9 mph - 0.04 in Rain Light Rain
7:23 PM 68.0 °F 64.4 °F 88% 29.34 in 10.0 mi South 8.1 mph - 0.04 in   Mostly Cloudy
7:51 PM 66.9 °F 64.9 °F 93% 29.32 in 10.0 mi SW 9.2 mph - 0.04 in   Scattered Clouds
8:27 PM 68.0 °F 64.4 °F 88% 29.36 in 10.0 mi SW 12.7 mph - N/A   Mostly Cloudy
8:43 PM 66.2 °F 62.6 °F 88% 29.37 in 10.0 mi WSW 20.7 mph 29.9 mph N/A   Mostly Cloudy
8:51 PM 64.9 °F 61.0 °F 87% 29.38 in 10.0 mi WSW 19.6 mph 29.9 mph N/A   Mostly Cloudy
9:39 PM 59.0 °F 53.6 °F 82% 29.42 in 10.0 mi WSW 24.2 mph 31.1 mph N/A   Mostly Cloudy
9:51 PM 59.0 °F 51.1 °F 75% 29.43 in 10.0 mi WSW 17.3 mph 34.5 mph N/A   Mostly Cloudy
10:51 PM 57.0 °F 48.9 °F 74% 29.46 in 10.0 mi WSW 17.3 mph 26.5 mph N/A   Mostly Cloudy
11:51 PM 55.9 °F 46.0 °F 69% 29.48 in 10.0 mi SW 21.9 mph 31.1 mph N/A   Mostly Cloudy